2023/04/14 23:32:38+0000,-31.73,-39.16,-37.62,-43.10,-51.61,-53.47
2023/04/14 23:33:30+0000,-31.60,-39.80,-37.10,-42.27,-51.39,-53.98
2023/04/14 23:34:22+0000,-30.90,-39.38,-37.16,-40.77,-51.96,-54.24
2023/04/14 23:35:14+0000,-31.10,-40.59,-37.27,-40.86,-51.67,-53.29
2023/04/14 23:36:06+0000,-31.27,-39.89,-37.70,-42.27,-51.86,-53.67
2023/04/14 23:36:58+0000,-31.23,-40.28,-36.95,-41.07,-51.23,-53.77
2023/04/14 23:37:50+0000,-30.77,-39.38,-37.32,-40.22,-51.64,-53.98
2023/04/14 23:38:42+0000,-31.78,-40.08,-37.19,-41.25,-52.03,-53.93
2023/04/14 23:39:34+0000,-31.61,-38.71,-36.69,-42.26,-51.01,-54.09
2023/04/14 23:40:26+0000,-31.08,-39.47,-37.94,-39.46,-52.05,-53.78
2023/04/14 23:41:26+0000,-30.96,-38.85,-36.83,-42.80,-52.27,-54.49
2023/04/14 23:42:18+0000,-31.67,-38.89,-37.75,-42.10,-51.68,-54.11
2023/04/14 23:43:10+0000,-30.92,-39.33,-37.92,-41.60,-51.91,-53.90
2023/04/14 23:44:02+0000,-31.64,-40.07,-37.63,-42.10,-51.76,-54.23
2023/04/14 23:44:54+0000,-30.99,-39.49,-36.99,-42.09,-51.53,-54.74
2023/04/14 23:45:46+0000,-31.49,-39.69,-38.04,-42.24,-51.52,-53.67
2023/04/14 23:46:38+0000,-31.33,-39.80,-37.06,-40.60,-50.88,-53.65
2023/04/14 23:47:30+0000,-31.81,-39.19,-37.33,-39.83,-51.21,-53.57
2023/04/14 23:48:22+0000,-31.60,-40.53,-37.36,-42.69,-50.90,-54.25
2023/04/14 23:49:14+0000,-31.94,-40.53,-37.68,-43.12,-50.69,-54.27
2023/04/14 23:50:06+0000,-31.52,-39.59,-37.31,-46.18,-51.03,-54.09
2023/04/14 23:51:05+0000,-31.10,-40.29,-37.64,-46.52,-51.75,-54.31
2023/04/14 23:51:57+0000,-31.88,-40.66,-37.13,-43.84,-51.18,-54.09
2023/04/14 23:52:49+0000,-31.08,-40.34,-37.09,-43.56,-51.33,-54.19
2023/04/14 23:53:41+0000,-31.52,-39.63,-37.40,-45.64,-51.93,-54.40
2023/04/14 23:54:34+0000,-31.29,-39.56,-37.94,-45.55,-50.84,-54.56
2023/04/14 23:55:26+0000,-31.32,-39.87,-37.56,-45.03,-51.47,-54.06
2023/04/14 23:56:18+0000,-30.73,-39.45,-37.24,-45.01,-51.07,-54.38
2023/04/14 23:57:10+0000,-31.10,-39.50,-37.32,-44.98,-51.24,-55.84
2023/04/14 23:58:02+0000,-31.92,-40.05,-37.68,-45.99,-51.15,-54.81
2023/04/14 23:58:54+0000,-31.09,-40.37,-37.19,-45.35,-52.25,-54.08
2023/04/14 23:59:46+0000,-31.24,-39.11,-37.47,-44.76,-51.92,-54.58
2023/04/15 00:00:38+0000,-31.57,-39.95,-38.11,-46.33,-52.32,-54.34
2023/04/15 00:01:40+0000,-31.29,-40.74,-37.51,-46.24,-51.85,-55.09
2023/04/15 00:02:32+0000,-30.81,-39.83,-37.23,-45.49,-51.43,-54.34
2023/04/15 00:03:24+0000,-31.43,-39.83,-37.26,-45.81,-52.86,-54.80
2023/04/15 00:04:16+0000,-31.73,-39.19,-37.24,-45.70,-51.45,-54.58
2023/04/15 00:05:08+0000,-32.21,-39.84,-37.48,-45.09,-51.76,-53.91
2023/04/15 00:06:00+0000,-32.02,-40.55,-37.00,-46.02,-51.20,-54.79
2023/04/15 00:06:52+0000,-32.03,-39.96,-37.41,-44.64,-51.56,-54.92
2023/04/15 00:07:44+0000,-31.48,-39.44,-36.92,-45.64,-51.99,-53.73
2023/04/15 00:08:37+0000,-31.46,-40.20,-37.15,-46.15,-51.07,-54.72
2023/04/15 00:09:29+0000,-31.73,-39.92,-37.51,-42.20,-51.32,-54.51
2023/04/15 00:10:21+0000,-31.61,-39.14,-37.22,-45.20,-51.42,-53.20
2023/04/15 00:11:20+0000,-31.28,-40.89,-37.17,-44.63,-51.91,-54.33
2023/04/15 00:12:12+0000,-31.90,-39.88,-37.51,-45.72,-51.93,-53.61
2023/04/15 00:13:04+0000,-31.00,-39.77,-37.18,-45.30,-51.94,-53.19
2023/04/15 00:13:56+0000,-31.87,-40.13,-37.08,-45.22,-52.45,-54.19
2023/04/15 00:14:48+0000,-31.97,-39.75,-37.22,-45.35,-51.97,-54.09
2023/04/15 00:15:40+0000,-31.61,-39.99,-36.72,-45.23,-52.33,-53.18
2023/04/15 00:16:32+0000,-31.34,-39.55,-37.06,-44.78,-52.19,-54.42
2023/04/15 00:17:24+0000,-31.88,-41.07,-36.41,-44.38,-51.96,-53.70
2023/04/15 00:18:16+0000,-31.46,-40.73,-37.10,-46.19,-52.07,-54.46
2023/04/15 00:19:08+0000,-32.01,-41.26,-36.92,-45.37,-51.17,-54.09
2023/04/15 00:20:00+0000,-31.78,-40.11,-37.09,-44.63,-52.23,-54.34
2023/04/15 00:20:59+0000,-31.77,-40.21,-37.21,-45.31,-51.57,-54.28
2023/04/15 00:21:51+0000,-32.05,-40.41,-37.39,-44.79,-51.17,-54.12
2023/04/15 00:22:43+0000,-31.46,-39.77,-37.38,-45.49,-51.01,-53.74
2023/04/15 00:23:35+0000,-31.77,-40.20,-36.94,-45.31,-51.56,-53.77
2023/04/15 00:24:27+0000,-31.10,-39.92,-36.92,-46.01,-51.39,-54.43
2023/04/15 00:25:20+0000,-31.48,-40.08,-37.25,-45.55,-51.69,-54.38
2023/04/15 00:26:12+0000,-31.75,-39.41,-37.58,-45.55,-51.21,-53.92
2023/04/15 00:27:04+0000,-30.92,-40.13,-37.38,-46.62,-51.70,-53.19
2023/04/15 00:27:56+0000,-31.44,-40.48,-37.49,-41.98,-52.04,-53.32
2023/04/15 00:28:48+0000,-31.38,-40.11,-37.34,-42.01,-51.84,-53.95
2023/04/15 00:29:40+0000,-31.91,-39.79,-37.06,-41.20,-51.78,-54.43
2023/04/15 00:30:32+0000,-31.33,-40.50,-37.28,-45.30,-51.41,-54.30
2023/04/15 00:31:31+0000,-31.14,-40.88,-37.40,-44.86,-52.20,-54.30
2023/04/15 00:32:23+0000,-31.45,-40.48,-36.85,-45.19,-51.26,-54.49
2023/04/15 00:33:15+0000,-31.06,-40.55,-37.01,-44.78,-51.65,-54.41
2023/04/15 00:34:07+0000,-31.33,-39.64,-36.95,-44.53,-51.18,-53.85
2023/04/15 00:34:59+0000,-31.53,-40.16,-37.70,-44.50,-51.05,-53.73
2023/04/15 00:35:51+0000,-30.61,-39.60,-37.14,-44.56,-51.64,-53.50
2023/04/15 00:36:43+0000,-32.20,-39.69,-37.44,-45.25,-49.38,-53.97
2023/04/15 00:37:35+0000,-31.42,-39.99,-37.10,-45.55,-52.32,-53.91
2023/04/15 00:38:27+0000,-30.89,-41.00,-36.74,-45.10,-52.29,-54.37
2023/04/15 00:39:19+0000,-31.93,-40.64,-37.52,-45.61,-50.44,-54.24
2023/04/15 00:40:11+0000,-31.43,-40.08,-36.61,-42.50,-52.06,-54.36
2023/04/15 00:41:11+0000,-31.97,-40.40,-37.37,-44.39,-52.11,-54.37
2023/04/15 00:42:03+0000,-31.11,-40.32,-37.51,-46.58,-50.78,-54.24
2023/04/15 00:42:55+0000,-31.82,-40.29,-37.34,-45.36,-52.28,-53.86
2023/04/15 00:43:47+0000,-31.45,-40.66,-36.93,-45.14,-47.16,-54.55
2023/04/15 00:44:39+0000,-31.12,-41.20,-37.25,-45.43,-51.54,-54.03
2023/04/15 00:45:31+0000,-31.94,-40.24,-36.98,-44.14,-51.68,-54.59
2023/04/15 00:46:23+0000,-31.39,-40.45,-37.28,-44.77,-50.77,-54.89
2023/04/15 00:47:15+0000,-31.27,-39.84,-37.51,-44.78,-47.59,-53.54
2023/04/15 00:48:07+0000,-31.75,-40.49,-37.02,-44.29,-52.04,-54.46
2023/04/15 00:48:59+0000,-31.20,-39.86,-36.82,-43.99,-52.41,-53.61
2023/04/15 00:49:51+0000,-31.53,-41.51,-36.96,-45.11,-50.15,-54.26
2023/04/15 00:50:44+0000,-30.67,-40.60,-37.27,-44.22,-47.59,-54.13
2023/04/15 00:51:43+0000,-31.60,-39.81,-37.51,-44.67,-49.46,-54.60
2023/04/15 00:52:35+0000,-31.35,-40.09,-37.72,-45.42,-52.29,-54.15
2023/04/15 00:53:27+0000,-31.26,-39.81,-37.48,-40.74,-51.98,-53.86
2023/04/15 00:54:19+0000,-31.65,-40.24,-37.50,-45.15,-50.42,-54.07
2023/04/15 00:55:11+0000,-31.91,-39.95,-36.61,-44.21,-52.07,-54.11
2023/04/15 00:56:03+0000,-31.43,-39.10,-37.04,-44.93,-51.98,-54.18
2023/04/15 00:56:55+0000,-30.84,-40.19,-36.61,-42.60,-51.96,-54.23
2023/04/15 00:57:47+0000,-31.33,-39.77,-37.51,-43.67,-51.12,-54.47
2023/04/15 00:58:39+0000,-31.57,-40.09,-36.54,-44.44,-52.00,-53.56
2023/04/15 00:59:31+0000,-31.56,-40.17,-36.61,-44.78,-51.93,-54.09
2023/04/15 01:00:24+0000,-31.96,-39.16,-36.94,-43.98,-50.47,-54.02
2023/04/15 01:01:23+0000,-31.38,-40.01,-36.93,-44.73,-51.93,-54.05
2023/04/15 01:02:15+0000,-32.04,-39.91,-36.92,-44.06,-51.57,-54.35
2023/04/15 01:03:08+0000,-31.69,-39.97,-36.43,-45.09,-51.56,-52.72
2023/04/15 01:04:00+0000,-32.38,-39.51,-36.39,-43.81,-51.50,-54.01
2023/04/15 01:04:52+0000,-32.01,-39.68,-36.66,-44.49,-50.85,-53.99
2023/04/15 01:05:44+0000,-31.28,-39.72,-36.69,-44.45,-50.76,-54.40
2023/04/15 01:06:36+0000,-31.48,-39.52,-36.95,-44.56,-51.59,-54.20
2023/04/15 01:07:28+0000,-31.26,-40.02,-36.91,-44.31,-51.68,-54.39
2023/04/15 01:08:20+0000,-32.05,-40.42,-37.28,-45.67,-51.40,-53.80
2023/04/15 01:09:12+0000,-31.67,-40.04,-36.54,-44.41,-51.44,-53.44
2023/04/15 01:10:04+0000,-30.98,-40.26,-37.10,-45.76,-51.62,-53.77
2023/04/15 01:11:04+0000,-30.44,-39.59,-36.97,-45.45,-51.56,-53.13
2023/04/15 01:11:56+0000,-31.91,-39.92,-36.79,-42.95,-51.91,-54.24
2023/04/15 01:12:48+0000,-31.31,-40.10,-36.62,-46.13,-50.58,-54.55
2023/04/15 01:13:40+0000,-31.63,-39.13,-37.28,-44.41,-51.69,-53.20
2023/04/15 01:14:32+0000,-31.09,-39.87,-36.65,-44.40,-51.88,-54.28
2023/04/15 01:15:24+0000,-29.94,-40.45,-36.58,-44.25,-48.57,-53.93
2023/04/15 01:16:16+0000,-31.34,-39.79,-37.53,-44.83,-50.47,-54.29
2023/04/15 01:17:08+0000,-31.79,-40.25,-36.58,-44.86,-51.38,-53.21
2023/04/15 01:18:00+0000,-32.14,-40.02,-36.87,-44.30,-50.99,-54.27
2023/04/15 01:18:52+0000,-32.09,-39.88,-37.42,-43.23,-48.43,-54.05
2023/04/15 01:19:44+0000,-31.94,-38.88,-37.43,-43.64,-50.07,-53.64
2023/04/15 01:20:36+0000,-31.14,-39.54,-37.54,-43.51,-50.61,-54.03
2023/04/15 01:21:36+0000,-31.44,-40.74,-37.22,-44.09,-51.33,-54.13
2023/04/15 01:22:28+0000,-31.80,-39.84,-37.59,-43.91,-52.00,-54.18
2023/04/15 01:23:20+0000,-31.44,-39.71,-37.11,-45.60,-50.58,-53.86
2023/04/15 01:24:12+0000,-31.04,-39.33,-37.55,-44.53,-50.52,-54.16
2023/04/15 01:25:04+0000,-32.35,-40.02,-37.24,-45.89,-51.83,-53.23
2023/04/15 01:25:56+0000,-31.08,-39.17,-36.45,-43.39,-52.55,-53.95
2023/04/15 01:26:48+0000,-31.74,-40.01,-37.35,-41.52,-49.80,-54.58
2023/04/15 01:27:40+0000,-32.56,-39.94,-36.84,-44.96,-50.86,-53.73
2023/04/15 01:28:32+0000,-31.59,-38.88,-37.39,-43.83,-51.34,-54.12
2023/04/15 01:29:24+0000,-30.83,-39.00,-36.78,-43.88,-49.88,-54.07
2023/04/15 01:30:16+0000,-30.73,-39.53,-36.58,-44.03,-50.16,-53.85
2023/04/15 01:31:16+0000,-31.28,-39.26,-36.60,-43.35,-49.00,-54.87
2023/04/15 01:32:08+0000,-31.24,-38.80,-36.72,-43.39,-50.95,-54.11
2023/04/15 01:33:00+0000,-31.42,-39.21,-36.95,-43.12,-50.65,-54.35
2023/04/15 01:33:52+0000,-31.22,-39.83,-36.42,-43.76,-50.42,-55.06
2023/04/15 01:34:44+0000,-31.44,-40.22,-37.02,-43.74,-51.30,-54.08
2023/04/15 01:35:36+0000,-31.74,-39.89,-36.27,-43.19,-50.33,-54.04
2023/04/15 01:36:28+0000,-31.48,-40.05,-37.13,-43.14,-48.89,-54.77
2023/04/15 01:37:20+0000,-31.04,-40.08,-36.39,-44.63,-50.88,-53.54
2023/04/15 01:38:12+0000,-30.95,-40.07,-36.92,-43.68,-51.69,-54.52
2023/04/15 01:39:04+0000,-32.11,-39.51,-37.07,-43.24,-50.13,-53.85
2023/04/15 01:39:56+0000,-31.87,-39.80,-36.81,-42.24,-51.87,-54.05
2023/04/15 01:40:48+0000,-31.63,-39.78,-36.81,-42.05,-51.37,-53.49
2023/04/15 01:41:49+0000,-31.30,-40.11,-36.73,-42.16,-50.30,-54.44
2023/04/15 01:42:41+0000,-31.06,-39.65,-36.65,-41.68,-50.99,-53.63
2023/04/15 01:43:33+0000,-31.57,-40.13,-36.53,-42.26,-50.16,-54.04
2023/04/15 01:44:25+0000,-31.41,-40.52,-36.32,-42.17,-50.89,-54.19
2023/04/15 01:45:17+0000,-31.64,-40.41,-37.27,-42.76,-50.38,-54.80
2023/04/15 01:46:09+0000,-30.77,-40.25,-36.77,-42.48,-50.41,-54.85
2023/04/15 01:47:01+0000,-31.08,-39.97,-37.02,-41.69,-50.94,-53.94
2023/04/15 01:47:53+0000,-30.78,-40.60,-36.74,-42.44,-50.60,-54.51
2023/04/15 01:48:45+0000,-31.79,-40.86,-36.65,-42.47,-50.74,-54.58
2023/04/15 01:49:37+0000,-31.10,-39.94,-35.44,-43.57,-50.45,-54.14
2023/04/15 01:50:29+0000,-31.79,-40.10,-37.75,-42.01,-49.57,-54.39
2023/04/15 01:51:29+0000,-31.30,-39.61,-37.50,-42.12,-50.69,-54.63
2023/04/15 01:52:21+0000,-31.59,-40.19,-36.88,-43.33,-50.93,-54.84
2023/04/15 01:53:13+0000,-30.87,-39.78,-37.64,-42.99,-50.36,-53.96
2023/04/15 01:54:05+0000,-31.87,-39.73,-37.05,-43.55,-50.27,-54.27
2023/04/15 01:54:57+0000,-31.01,-40.05,-37.00,-42.84,-51.87,-54.28
2023/04/15 01:55:49+0000,-31.06,-39.20,-36.78,-41.00,-50.54,-54.57
2023/04/15 01:56:41+0000,-31.39,-38.34,-37.33,-40.88,-51.35,-54.55
2023/04/15 01:57:33+0000,-31.07,-38.50,-37.40,-39.75,-49.92,-54.19
2023/04/15 01:58:25+0000,-31.35,-38.88,-36.61,-42.20,-50.22,-53.86
2023/04/15 01:59:17+0000,-30.63,-39.54,-37.69,-41.58,-49.47,-54.16
2023/04/15 02:00:09+0000,-31.23,-39.16,-37.40,-41.53,-50.77,-53.25
2023/04/15 02:01:10+0000,-31.29,-39.42,-37.13,-42.49,-51.23,-53.85
2023/04/15 02:02:02+0000,-32.23,-39.12,-35.85,-42.92,-50.99,-53.18
2023/04/15 02:02:54+0000,-30.98,-39.48,-36.66,-42.10,-49.30,-54.01
2023/04/15 02:03:46+0000,-31.35,-39.07,-36.44,-41.61,-48.52,-53.59
2023/04/15 02:04:38+0000,-31.36,-39.83,-36.64,-41.99,-50.23,-53.67
2023/04/15 02:05:30+0000,-31.62,-39.17,-37.04,-43.01,-50.52,-53.38
2023/04/15 02:06:22+0000,-31.42,-39.64,-36.89,-43.69,-48.09,-54.16
2023/04/15 02:07:14+0000,-31.78,-39.18,-37.19,-41.77,-47.69,-53.83
2023/04/15 02:08:06+0000,-31.03,-39.41,-36.26,-42.40,-50.28,-53.59
2023/04/15 02:08:58+0000,-31.68,-38.79,-36.73,-41.61,-50.26,-54.13
2023/04/15 02:09:50+0000,-32.20,-38.20,-36.42,-40.69,-49.24,-53.81
2023/04/15 02:10:42+0000,-31.55,-38.78,-37.39,-40.36,-50.14,-53.64
2023/04/15 02:11:42+0000,-31.98,-38.44,-37.23,-40.10,-49.15,-53.97
2023/04/15 02:12:34+0000,-30.95,-37.93,-36.44,-43.20,-50.06,-53.68
2023/04/15 02:13:26+0000,-31.47,-38.84,-36.90,-41.90,-50.99,-54.26
2023/04/15 02:14:18+0000,-31.27,-38.31,-36.63,-42.07,-50.04,-53.96
2023/04/15 02:15:10+0000,-31.07,-38.26,-37.15,-40.60,-51.62,-54.40
2023/04/15 02:16:02+0000,-31.90,-38.23,-36.84,-41.19,-49.79,-54.50
2023/04/15 02:16:54+0000,-31.16,-39.09,-36.42,-41.71,-50.52,-53.87
2023/04/15 02:17:46+0000,-31.59,-38.64,-36.91,-40.87,-47.75,-53.54
2023/04/15 02:18:38+0000,-31.72,-38.45,-36.78,-41.10,-50.86,-53.82
2023/04/15 02:19:30+0000,-31.19,-38.24,-36.85,-40.35,-50.53,-54.25
2023/04/15 02:20:22+0000,-30.86,-38.74,-36.02,-41.13,-50.21,-53.41
2023/04/15 02:21:22+0000,-31.74,-38.65,-37.14,-41.96,-49.37,-53.50
2023/04/15 02:22:14+0000,-31.81,-38.03,-36.91,-42.71,-48.26,-53.74
2023/04/15 02:23:06+0000,-31.49,-38.42,-36.80,-42.99,-50.43,-54.15
2023/04/15 02:23:58+0000,-32.08,-39.16,-36.95,-42.49,-50.93,-53.36
2023/04/15 02:24:50+0000,-31.28,-37.82,-37.05,-41.80,-49.06,-53.41
2023/04/15 02:25:42+0000,-30.63,-38.16,-36.99,-40.65,-48.90,-53.69
2023/04/15 02:26:34+0000,-31.87,-39.22,-36.82,-43.78,-50.44,-53.71
2023/04/15 02:27:26+0000,-31.01,-38.53,-36.83,-42.89,-50.66,-54.66
2023/04/15 02:28:18+0000,-31.35,-38.90,-36.50,-40.55,-49.35,-53.57
2023/04/15 02:29:10+0000,-31.27,-37.90,-37.28,-40.74,-50.89,-53.55
2023/04/15 02:30:02+0000,-31.95,-36.97,-36.71,-42.14,-51.43,-53.49
2023/04/15 02:31:02+0000,-31.15,-37.97,-36.73,-38.75,-50.29,-53.62
2023/04/15 02:31:54+0000,-31.35,-39.11,-36.04,-40.85,-50.24,-53.83
2023/04/15 02:32:46+0000,-31.21,-38.71,-36.53,-42.66,-50.00,-53.77
2023/04/15 02:33:38+0000,-31.42,-38.70,-36.20,-42.23,-50.32,-53.29
2023/04/15 02:34:30+0000,-31.92,-38.35,-36.52,-41.68,-49.96,-53.51
2023/04/15 02:35:22+0000,-31.40,-38.24,-36.41,-41.75,-49.38,-54.12
2023/04/15 02:36:14+0000,-31.55,-38.37,-37.30,-39.45,-47.63,-53.43
2023/04/15 02:37:06+0000,-31.25,-38.57,-36.71,-39.94,-50.06,-53.32
2023/04/15 02:37:58+0000,-31.06,-37.38,-36.84,-39.55,-50.42,-53.80
2023/04/15 02:38:50+0000,-31.11,-37.87,-36.53,-42.37,-48.26,-53.92
2023/04/15 02:39:42+0000,-31.64,-38.31,-36.38,-39.86,-49.88,-53.97
2023/04/15 02:40:34+0000,-32.20,-38.17,-36.59,-40.68,-50.12,-53.96
2023/04/15 02:41:33+0000,-31.61,-38.50,-36.66,-41.65,-50.41,-53.72
2023/04/15 02:42:25+0000,-31.33,-37.64,-36.36,-39.85,-50.17,-53.76
2023/04/15 02:43:17+0000,-32.45,-37.12,-37.02,-41.06,-50.16,-53.97
2023/04/15 02:44:09+0000,-32.22,-37.86,-36.86,-39.97,-49.93,-53.81
2023/04/15 02:45:01+0000,-31.49,-37.78,-37.14,-40.63,-50.42,-53.72
2023/04/15 02:45:54+0000,-31.22,-38.42,-36.73,-41.84,-48.79,-54.14
2023/04/15 02:46:46+0000,-31.82,-38.64,-36.59,-40.41,-48.86,-53.54
2023/04/15 02:47:38+0000,-31.52,-38.23,-37.57,-39.96,-50.23,-53.86
2023/04/15 02:48:30+0000,-32.21,-37.94,-36.59,-40.45,-50.05,-53.97
2023/04/15 02:49:22+0000,-31.65,-37.96,-36.38,-40.23,-47.67,-53.78
2023/04/15 02:50:14+0000,-31.97,-37.98,-36.87,-39.73,-46.95,-53.78
2023/04/15 02:51:14+0000,-31.79,-38.04,-37.44,-39.48,-47.65,-53.43
2023/04/15 02:52:06+0000,-32.39,-38.34,-36.44,-43.64,-50.55,-53.85
2023/04/15 02:52:58+0000,-31.07,-38.27,-36.72,-40.29,-44.91,-53.56
2023/04/15 02:53:50+0000,-31.72,-38.36,-36.45,-40.79,-49.98,-54.18
2023/04/15 02:54:42+0000,-31.92,-38.93,-36.54,-41.74,-50.88,-53.65
2023/04/15 02:55:34+0000,-31.12,-37.43,-36.61,-40.75,-47.82,-53.87
2023/04/15 02:56:26+0000,-31.73,-36.48,-37.14,-39.52,-50.68,-53.17
2023/04/15 02:57:18+0000,-31.73,-38.31,-36.82,-42.50,-49.18,-53.51
2023/04/15 02:58:10+0000,-31.38,-38.91,-36.14,-42.48,-47.49,-54.02
2023/04/15 02:59:02+0000,-31.58,-37.30,-36.67,-41.35,-48.20,-53.90
2023/04/15 02:59:54+0000,-31.64,-37.98,-36.26,-42.08,-49.55,-53.30
2023/04/15 03:00:46+0000,-31.86,-38.55,-37.29,-40.10,-45.10,-53.05
2023/04/15 03:01:46+0000,-31.94,-38.72,-36.35,-41.34,-47.85,-54.24
2023/04/15 03:02:38+0000,-31.62,-38.27,-35.12,-40.29,-48.54,-53.68
2023/04/15 03:03:30+0000,-30.92,-37.85,-36.51,-39.34,-50.19,-54.05
2023/04/15 03:04:22+0000,-32.03,-38.52,-36.50,-40.34,-48.99,-54.08
2023/04/15 03:05:14+0000,-31.52,-37.87,-35.95,-40.09,-49.65,-53.64
2023/04/15 03:06:06+0000,-32.18,-38.83,-35.87,-39.45,-50.26,-53.76
2023/04/15 03:06:58+0000,-31.41,-38.85,-36.66,-39.73,-50.61,-53.74
2023/04/15 03:07:50+0000,-32.24,-38.36,-35.85,-42.26,-49.38,-54.06
2023/04/15 03:08:42+0000,-31.06,-38.03,-36.17,-39.55,-49.99,-54.45
2023/04/15 03:09:34+0000,-32.06,-38.44,-35.59,-40.50,-49.53,-53.99
2023/04/15 03:10:26+0000,-31.53,-38.66,-36.76,-39.57,-50.43,-53.54
2023/04/15 03:11:26+0000,-30.92,-38.63,-36.41,-39.90,-49.88,-54.47
2023/04/15 03:12:18+0000,-31.89,-38.40,-35.70,-40.13,-47.94,-53.96
2023/04/15 03:13:10+0000,-31.39,-38.97,-35.79,-39.05,-50.49,-53.46
2023/04/15 03:14:02+0000,-31.96,-39.48,-36.87,-39.07,-50.70,-53.77
2023/04/15 03:14:54+0000,-32.43,-39.49,-36.02,-39.08,-47.60,-53.37
2023/04/15 03:15:46+0000,-32.21,-39.89,-35.63,-39.55,-48.07,-53.93
2023/04/15 03:16:38+0000,-32.10,-38.40,-36.41,-39.93,-49.59,-53.98
2023/04/15 03:17:30+0000,-31.60,-38.31,-36.17,-39.01,-50.01,-53.89
2023/04/15 03:18:22+0000,-31.19,-38.77,-35.67,-39.78,-49.34,-53.46
2023/04/15 03:19:14+0000,-31.79,-37.68,-35.95,-39.03,-50.33,-53.52
2023/04/15 03:20:06+0000,-31.99,-39.79,-36.43,-39.21,-50.42,-53.55
2023/04/15 03:21:05+0000,-32.25,-39.21,-36.38,-39.60,-49.99,-53.78
2023/04/15 03:21:57+0000,-32.43,-38.13,-36.74,-39.22,-50.62,-53.87
2023/04/15 03:22:49+0000,-31.81,-38.48,-36.61,-40.37,-48.74,-53.39
2023/04/15 03:23:41+0000,-31.12,-37.79,-36.65,-40.00,-50.87,-54.14
2023/04/15 03:24:33+0000,-31.83,-38.71,-36.71,-40.28,-48.54,-54.19
2023/04/15 03:25:26+0000,-31.20,-38.34,-36.42,-39.83,-51.03,-53.76
2023/04/15 03:26:18+0000,-31.53,-38.66,-36.87,-42.74,-48.61,-54.06
2023/04/15 03:27:10+0000,-32.03,-37.85,-35.86,-39.51,-50.46,-54.07
2023/04/15 03:28:02+0000,-31.98,-38.63,-36.89,-39.40,-49.73,-53.92
2023/04/15 03:28:54+0000,-31.74,-37.26,-36.05,-39.64,-51.50,-53.92
2023/04/15 03:29:46+0000,-32.37,-38.05,-35.37,-39.96,-50.88,-54.08
2023/04/15 03:30:38+0000,-32.70,-37.76,-36.30,-41.06,-50.25,-53.72
2023/04/15 03:31:37+0000,-32.73,-39.03,-36.29,-41.68,-50.68,-53.79
2023/04/15 03:32:29+0000,-31.95,-38.09,-36.39,-39.84,-50.07,-53.59
2023/04/15 03:33:21+0000,-32.14,-38.72,-36.52,-39.75,-50.22,-53.86
2023/04/15 03:34:13+0000,-32.19,-37.96,-36.03,-40.14,-50.10,-53.46
2023/04/15 03:35:05+0000,-32.43,-39.57,-36.57,-41.88,-50.47,-53.77
2023/04/15 03:35:57+0000,-31.86,-37.97,-36.52,-40.36,-50.43,-53.86
2023/04/15 03:36:49+0000,-32.17,-37.06,-35.19,-40.61,-49.98,-53.89
2023/04/15 03:37:41+0000,-32.21,-37.32,-35.76,-40.46,-50.89,-53.41
2023/04/15 03:38:33+0000,-32.36,-37.29,-36.40,-40.59,-50.95,-53.73
2023/04/15 03:39:26+0000,-32.22,-38.37,-35.84,-39.45,-50.80,-53.62
2023/04/15 03:40:18+0000,-32.71,-38.41,-36.02,-39.77,-50.18,-53.63
2023/04/15 03:41:17+0000,-31.70,-37.02,-36.63,-40.94,-50.57,-53.92
2023/04/15 03:42:09+0000,-32.58,-37.86,-36.50,-40.07,-50.35,-54.15
2023/04/15 03:43:01+0000,-32.36,-37.23,-36.67,-39.97,-50.80,-53.50
2023/04/15 03:43:53+0000,-32.39,-39.45,-37.38,-39.49,-50.78,-53.56
2023/04/15 03:44:45+0000,-32.73,-37.82,-36.86,-41.14,-50.09,-53.82
2023/04/15 03:45:37+0000,-32.21,-37.97,-36.46,-40.14,-50.24,-53.84
2023/04/15 03:46:30+0000,-31.66,-38.28,-36.70,-38.98,-50.30,-53.65
2023/04/15 03:47:22+0000,-32.16,-39.41,-36.61,-40.84,-51.09,-53.32
2023/04/15 03:48:14+0000,-32.33,-36.58,-37.15,-40.17,-50.37,-53.63
2023/04/15 03:49:06+0000,-32.24,-39.13,-36.54,-40.08,-49.31,-53.92
2023/04/15 03:49:58+0000,-31.84,-39.24,-37.51,-40.23,-49.45,-53.62
2023/04/15 03:50:50+0000,-31.30,-37.68,-36.78,-39.88,-50.23,-53.53
2023/04/15 03:51:49+0000,-31.21,-37.64,-36.37,-40.92,-49.66,-53.62
2023/04/15 03:52:41+0000,-31.02,-37.69,-37.21,-37.19,-50.98,-54.03
2023/04/15 03:53:33+0000,-32.06,-39.30,-36.75,-38.03,-51.36,-53.47
2023/04/15 03:54:25+0000,-31.30,-38.73,-36.32,-37.75,-50.97,-53.44
2023/04/15 03:55:17+0000,-31.52,-36.16,-37.17,-37.57,-50.41,-52.76
2023/04/15 03:56:09+0000,-32.31,-37.86,-36.49,-37.67,-51.37,-53.33
2023/04/15 03:57:01+0000,-32.11,-38.39,-36.72,-37.06,-51.44,-53.26
2023/04/15 03:57:53+0000,-31.93,-39.24,-36.53,-37.25,-51.14,-53.72
2023/04/15 03:58:45+0000,-31.94,-37.54,-36.86,-36.93,-50.78,-53.13
2023/04/15 03:59:37+0000,-32.25,-38.46,-37.41,-39.56,-50.50,-53.00
2023/04/15 04:00:29+0000,-31.88,-38.38,-37.28,-40.67,-50.52,-53.10
2023/04/15 04:01:30+0000,-31.45,-38.21,-36.83,-40.49,-50.34,-53.61
2023/04/15 04:02:22+0000,-31.29,-37.84,-37.45,-40.44,-50.42,-52.20
2023/04/15 04:03:14+0000,-31.21,-38.52,-36.95,-40.29,-48.63,-52.62
2023/04/15 04:04:06+0000,-30.99,-39.30,-36.55,-40.48,-49.06,-52.52
2023/04/15 04:04:58+0000,-31.65,-38.93,-37.09,-40.59,-49.32,-52.85
2023/04/15 04:05:50+0000,-31.77,-38.83,-37.21,-40.96,-49.32,-53.06
2023/04/15 04:06:42+0000,-31.87,-37.29,-37.07,-40.99,-48.47,-52.88
2023/04/15 04:07:34+0000,-32.70,-38.83,-36.52,-40.97,-48.96,-52.72
2023/04/15 04:08:26+0000,-31.37,-38.31,-37.17,-41.04,-48.69,-52.51
2023/04/15 04:09:18+0000,-32.32,-37.81,-36.90,-41.37,-48.96,-52.95
2023/04/15 04:10:10+0000,-32.76,-38.73,-36.64,-40.58,-48.48,-51.99
2023/04/15 04:11:10+0000,-31.96,-38.95,-36.61,-40.02,-49.39,-52.52
2023/04/15 04:12:02+0000,-31.56,-39.70,-36.74,-40.56,-48.78,-52.60
2023/04/15 04:12:54+0000,-32.38,-39.15,-36.82,-41.88,-48.76,-52.77
2023/04/15 04:13:46+0000,-31.76,-41.34,-36.28,-40.54,-48.53,-52.81
2023/04/15 04:14:38+0000,-31.67,-40.73,-36.51,-40.28,-48.25,-52.79
2023/04/15 04:15:30+0000,-32.18,-41.87,-36.60,-40.56,-48.52,-52.12
2023/04/15 04:16:22+0000,-32.08,-42.21,-36.55,-40.60,-46.83,-52.63
2023/04/15 04:17:14+0000,-32.87,-40.95,-36.38,-39.63,-47.41,-52.19
2023/04/15 04:18:06+0000,-32.16,-42.33,-36.45,-39.92,-47.63,-52.06
2023/04/15 04:18:58+0000,-31.54,-41.59,-37.12,-41.00,-48.79,-52.48
2023/04/15 04:19:50+0000,-31.81,-42.59,-36.71,-40.55,-48.05,-52.50
2023/04/15 04:20:42+0000,-33.10,-41.06,-37.06,-40.12,-47.95,-52.34
2023/04/15 04:21:42+0000,-32.74,-40.57,-37.51,-40.41,-48.39,-52.19
2023/04/15 04:22:34+0000,-32.56,-42.88,-36.39,-41.56,-49.02,-52.90
2023/04/15 04:23:26+0000,-31.19,-42.57,-36.59,-39.87,-48.55,-53.03
2023/04/15 04:24:18+0000,-31.56,-39.26,-36.34,-40.85,-47.79,-52.49
2023/04/15 04:25:10+0000,-32.55,-40.07,-36.00,-40.03,-48.31,-52.66
2023/04/15 04:26:02+0000,-31.97,-41.92,-37.37,-39.43,-48.73,-52.66
2023/04/15 04:26:54+0000,-32.36,-42.40,-36.89,-39.35,-48.22,-52.55
2023/04/15 04:27:46+0000,-31.77,-39.24,-37.22,-40.76,-48.33,-52.37
2023/04/15 04:28:38+0000,-31.59,-38.99,-36.56,-40.00,-48.09,-52.33
2023/04/15 04:29:30+0000,-32.71,-42.51,-36.30,-40.14,-48.23,-52.65
2023/04/15 04:30:22+0000,-32.18,-44.00,-37.20,-40.34,-47.53,-52.37
2023/04/15 04:31:22+0000,-31.65,-44.75,-36.85,-40.82,-48.42,-52.91
2023/04/15 04:32:14+0000,-32.01,-38.94,-37.43,-40.30,-48.49,-52.32
2023/04/15 04:33:06+0000,-32.75,-43.22,-36.14,-40.18,-49.14,-52.51
2023/04/15 04:33:58+0000,-32.16,-43.37,-37.63,-40.67,-47.92,-52.60
2023/04/15 04:34:50+0000,-32.40,-41.53,-37.03,-40.71,-48.62,-52.68
2023/04/15 04:35:42+0000,-32.29,-39.97,-36.91,-39.81,-49.27,-52.45
2023/04/15 04:36:34+0000,-32.53,-43.01,-37.12,-40.38,-48.34,-52.68
2023/04/15 04:37:26+0000,-31.97,-41.78,-36.92,-39.13,-48.92,-52.66
2023/04/15 04:38:18+0000,-32.52,-40.52,-37.30,-40.94,-49.00,-53.34
2023/04/15 04:39:10+0000,-32.69,-42.06,-36.83,-38.84,-49.08,-53.18
2023/04/15 04:40:02+0000,-32.46,-40.78,-36.61,-39.80,-49.04,-52.80
2023/04/15 04:41:02+0000,-32.23,-40.49,-36.59,-39.53,-47.19,-49.59
2023/04/15 04:41:54+0000,-32.07,-42.78,-36.46,-42.95,-47.31,-49.73
2023/04/15 04:42:46+0000,-32.20,-40.40,-36.51,-42.07,-47.98,-50.60
2023/04/15 04:43:38+0000,-32.76,-42.60,-36.63,-41.44,-47.16,-50.23
2023/04/15 04:44:30+0000,-32.81,-42.58,-36.58,-43.26,-47.84,-50.57
2023/04/15 04:45:22+0000,-32.65,-43.36,-36.76,-40.66,-47.76,-50.30
2023/04/15 04:46:14+0000,-31.74,-40.18,-37.09,-41.58,-47.57,-50.26